COSMOS 1691 DEB, 17168

Orbit data source: Space-Track

COSMOS 1691 DEB, 17168 is space debris in LEO originally from a launch on Wed, 09 Oct 1985 UTC launched from the Plesetsk Missile And Space Complex (PKMTR). Debris objects in space refer to the collection of defunct objects orbiting the Earth. Examples of debris include non-operational satellites, rocket bodies, and fragments generated from explosions, collisions, or faulty payload assembly.

Loading next visibility...
Identifier
17168, 1985-094S
Orbit
LEO
Country
Flag of CISCIS
Related business
Manufacturer
Unknown
Mission
Spacecraft
Bus & Motor
Unknown
Mass
Unknown
Launch date (UTC)
1985-10-09 (41 years ago)
Launch vehicle
Unknown
Launch site
Plesetsk Missile And Space Complex (PKMTR)
Object type
Payload
Rocket body
Debris
Shape & HBR
Unknown shape, 0.1 m
Radar Cross Section
Medium (>0.1 m² and <1 m²)

Expand to show TLE details & history
Last TLE update: 2 days ago

TLE from 2 days ago
0 COSMOS 1691 DEB
1 17168U 85094S   26171.21418924  .00002309  00000-0  61268-2 0  9996
2 17168  82.5529 161.7495 0067708  85.2673 292.8076 13.14439195903824
Epoch: 2026-06-20T05:08Z
TLE epoch observation values (Epoch: 2026-06-20T05:08:25.950Z)
Latitude
17.19438°
Longitude
178.51574°
Altitude
1,188.632 km
Speed
7.27 km/s
True Right ascension
10h 56m 13s
True Declination
17° 06' 11"
Sunlit
Object was in daylight at epoch
Visualization orbit readout
Latitude
Unknown
Longitude
Unknown
Altitude
Unknown
Speed
Unknown
Apparent Right ascension
Unknown
Apparent Declination
Unknown
Sunlit
N/A
Visualization observer readout
Local Sidereal Time
23:20:37
Azimuth
Unknown
Elevation
Unknown
Doppler factor
Unknown
Orbital elements
Apogee altitude
1,254.615 km
Perigee altitude
1,151.951 km
Semi-major axis
7,581.42 km
Eccentricity
0.00677
Inclination
82.5529°
RAAN
161.7495°
Arg. of periapsis
85.2673°
True anomaly
292.09005°
Mean anomaly
292.8076°
Eccentric anomaly
292.44906°
Mean motion
3.28789 °/min
Orbital period
109.49 mins
BSTAR
0.0061268
Loading maneuver chart data...
Computing Atmospheric mass density...
Loading historical data...
Loading historical data...
Loading historical data...
Loading historical data...
Loading historical data...
Loading historical data...
Loading historical data...

Documentation

Showing up to 5 results
|